Versailles, OH

4:24 PM EDT on April 28, 2017 (GMT -0400)
Darke County

Weather History for KVES - November, 2013

Change the Weather History Date:

Friday, November 1, 2013

  Actual Average (KDAY) Record (KDAY)
Temperature  
Mean Temperature 50 °F -  
Max Temperature 55 °F 62 °F 79 °F (1950)
Min Temperature 44 °F 44 °F 20 °F (1906)
Degree Days  
Heating Degree Days 16    
Moisture  
Dew Point 45 °F    
Average Humidity 85    
Maximum Humidity 100    
Minimum Humidity 67    
Precipitation  
Precipitation 0.06 in - - ()
Sea Level Pressure  
Sea Level Pressure 29.61 in    
Wind  
Wind Speed 14 mph (West)    
Max Wind Speed 24 mph    
Max Gust Speed 34 mph    
Visibility 10 miles    
Events Rain    
Averages and records for this station are not official NWS values.
T = Trace of Precipitation, MM = Missing Value Source: NWS Daily Summary

Daily Weather History Graph

Daily Weather History Graph

Search for Another Location

Airport or City:

Trip Planner

Search our weather history database for the weather conditions in past years. The results will help you decide how hot, cold, wet, or windy it might be!

Date:

Astronomy

Nov. 01, 2013 Rise Set
Actual Time 8:07 AM EDT 6:35 PM EDT
Civil Twilight 7:39 AM EDT 7:03 PM EDT
Nautical Twilight 7:07 AM EDT 7:35 PM EDT
Astronomical Twilight 6:35 AM EDT 8:06 PM EDT
Moon 5:59 AM EDT (11/1) 5:27 PM EDT (11/1)
Length of Visible Light 11h 23m
Length of Day
10h 27m
Waning Crescent, 4% of the Moon is Illuminated
Nov 1
Waning Crescent
Nov 3
New
Nov 10
First Quarter
Nov 17
Full
Nov 25
Last Quarter

Hourly Weather History & Observations

Time (EDT) Temp. Windchill Dew Point Humidity Pressure Visibility Wind Dir Wind Speed Gust Speed Precip Events Conditions
12:15 AM 55.4 °F - 55.4 °F 100% 29.36 in 10.0 mi West 16.1 mph 21.9 mph 0.01 in Rain Rain
12:35 AM 55.4 °F - 55.4 °F 100% 29.36 in 10.0 mi West 10.4 mph 20.7 mph 0.02 in   Overcast
12:55 AM 55.4 °F - 55.4 °F 100% 29.38 in 10.0 mi West 12.7 mph - 0.02 in   Overcast
1:15 AM 55.4 °F - 53.6 °F 94% 29.38 in 10.0 mi West 15.0 mph 26.5 mph 0.01 in   Mostly Cloudy
1:35 AM 55.4 °F - 53.6 °F 94% 29.39 in 10.0 mi West 17.3 mph 25.3 mph 0.02 in   Mostly Cloudy
1:55 AM 55.4 °F - 53.6 °F 94% 29.41 in 10.0 mi West 15.0 mph 23.0 mph 0.02 in   Overcast
2:15 AM 53.6 °F - 51.8 °F 94% 29.43 in 10.0 mi West 24.2 mph 31.1 mph 0.01 in   Overcast
2:35 AM 53.6 °F - 51.8 °F 94% 29.45 in 10.0 mi West 17.3 mph 27.6 mph 0.01 in   Mostly Cloudy
2:55 AM 51.8 °F - 48.2 °F 88% 29.46 in 10.0 mi West 16.1 mph 27.6 mph 0.02 in   Mostly Cloudy
3:15 AM 50.0 °F - 46.4 °F 87% 29.47 in 10.0 mi West 16.1 mph 26.5 mph N/A   Scattered Clouds
3:35 AM 50.0 °F - 48.2 °F 94% 29.49 in 10.0 mi West 21.9 mph 34.5 mph N/A   Mostly Cloudy
3:55 AM 50.0 °F - 46.4 °F 87% 29.50 in 10.0 mi West 16.1 mph 27.6 mph N/A   Mostly Cloudy
4:15 AM 50.0 °F - 46.4 °F 87% 29.51 in 10.0 mi West 16.1 mph 23.0 mph N/A   Mostly Cloudy
4:35 AM 50.0 °F - 46.4 °F 87% 29.52 in 10.0 mi West 18.4 mph 27.6 mph N/A   Overcast
4:55 AM 50.0 °F - 44.6 °F 82% 29.53 in 10.0 mi West 13.8 mph 29.9 mph N/A   Mostly Cloudy
5:15 AM 50.0 °F - 44.6 °F 82% 29.54 in 10.0 mi West 17.3 mph 26.5 mph N/A   Scattered Clouds
5:35 AM 48.2 °F - 44.6 °F 87% 29.55 in 10.0 mi West 17.3 mph 23.0 mph N/A   Clear
5:55 AM 46.4 °F 39.8 °F 42.8 °F 87% 29.56 in 10.0 mi West 16.1 mph 23.0 mph N/A   Clear
6:15 AM 46.4 °F 40.1 °F 44.6 °F 93% 29.58 in 10.0 mi West 15.0 mph 24.2 mph N/A   Mostly Cloudy
6:35 AM 46.4 °F 39.8 °F 44.6 °F 93% 29.59 in 10.0 mi WSW 16.1 mph - N/A   Mostly Cloudy
6:55 AM 44.6 °F 37.4 °F 42.8 °F 93% 29.59 in 10.0 mi WSW 16.1 mph - N/A   Scattered Clouds
7:15 AM 44.6 °F 38.4 °F 42.8 °F 93% 29.60 in 10.0 mi WSW 12.7 mph - N/A   Clear
7:35 AM 44.6 °F 38.8 °F 42.8 °F 93% 29.61 in 10.0 mi WSW 11.5 mph - N/A   Clear
7:55 AM 44.6 °F 38.4 °F 42.8 °F 93% 29.62 in 10.0 mi WSW 12.7 mph 17.3 mph N/A   Clear
8:15 AM 44.6 °F 39.2 °F 42.8 °F 93% 29.63 in 10.0 mi SW 10.4 mph - N/A   Clear
8:35 AM 44.6 °F 39.7 °F 42.8 °F 93% 29.64 in 10.0 mi WSW 9.2 mph - N/A   Clear
8:55 AM 44.6 °F - 42.8 °F 93% 29.65 in 10.0 mi North - - N/A   Clear
9:15 AM 44.6 °F 38.8 °F 42.8 °F 93% 29.65 in 10.0 mi SW 11.5 mph - N/A   Clear
9:35 AM 46.4 °F 40.4 °F 44.6 °F 93% 29.65 in 10.0 mi SW 13.8 mph 18.4 mph N/A   Scattered Clouds
9:55 AM 48.2 °F - 44.6 °F 87% 29.65 in 10.0 mi WSW 11.5 mph 19.6 mph N/A   Mostly Cloudy
10:15 AM 46.4 °F 39.2 °F 44.6 °F 93% 29.65 in 10.0 mi WSW 18.4 mph 25.3 mph N/A   Overcast
10:35 AM 48.2 °F - 44.6 °F 87% 29.66 in 10.0 mi WSW 15.0 mph 21.9 mph N/A   Overcast
10:55 AM 46.4 °F 40.1 °F 44.6 °F 93% 29.67 in 10.0 mi WSW 15.0 mph 23.0 mph N/A   Overcast
11:15 AM 48.2 °F - 44.6 °F 87% 29.67 in 10.0 mi WSW 13.8 mph 23.0 mph N/A   Overcast
11:35 AM 48.2 °F - 44.6 °F 87% 29.67 in 10.0 mi SW 12.7 mph 19.6 mph N/A   Overcast
11:55 AM 48.2 °F - 44.6 °F 87% 29.67 in 10.0 mi SW 13.8 mph 17.3 mph N/A   Overcast
12:15 PM 50.0 °F - 44.6 °F 82% 29.68 in 10.0 mi SW 13.8 mph 20.7 mph N/A   Overcast
12:35 PM 50.0 °F - 44.6 °F 82% 29.68 in 10.0 mi SW 11.5 mph 19.6 mph N/A   Overcast
12:55 PM 50.0 °F - 44.6 °F 82% 29.68 in 10.0 mi SW 16.1 mph 20.7 mph N/A   Overcast
1:15 PM 51.8 °F - 44.6 °F 76% 29.67 in 10.0 mi SW 15.0 mph - N/A   Overcast
1:35 PM 53.6 °F - 44.6 °F 72% 29.66 in 10.0 mi WSW 20.7 mph 26.5 mph N/A   Overcast
1:55 PM 51.8 °F - 44.6 °F 76% 29.65 in 10.0 mi SW 15.0 mph 18.4 mph N/A   Overcast
2:15 PM 53.6 °F - 44.6 °F 72% 29.65 in 10.0 mi WSW 17.3 mph 23.0 mph N/A   Overcast
2:35 PM 53.6 °F - 44.6 °F 72% 29.65 in 10.0 mi WSW 15.0 mph 19.6 mph N/A   Overcast
2:55 PM 51.8 °F - 44.6 °F 76% 29.65 in 10.0 mi WSW 12.7 mph 19.6 mph N/A   Overcast
3:15 PM 53.6 °F - 44.6 °F 72% 29.65 in 10.0 mi West 11.5 mph - N/A   Overcast
3:35 PM 53.6 °F - 44.6 °F 72% 29.65 in 10.0 mi WSW 12.7 mph 16.1 mph N/A   Overcast
3:55 PM 53.6 °F - 44.6 °F 72% 29.65 in 10.0 mi WSW 13.8 mph 17.3 mph N/A   Overcast
4:15 PM 53.6 °F - 42.8 °F 67% 29.65 in 10.0 mi West 12.7 mph 18.4 mph N/A   Overcast
5:55 PM 53.6 °F - 44.6 °F 72% 29.67 in 10.0 mi West 10.4 mph - N/A   Overcast
6:15 PM 51.8 °F - 44.6 °F 76% 29.67 in 10.0 mi WNW 5.8 mph - N/A   Overcast
6:35 PM 51.8 °F - 44.6 °F 76% 29.68 in 10.0 mi WNW 6.9 mph - N/A   Overcast
6:55 PM 51.8 °F - 44.6 °F 76% 29.69 in 10.0 mi WNW 9.2 mph 17.3 mph N/A   Overcast
7:15 PM 50.0 °F - 44.6 °F 82% 29.69 in 10.0 mi NW 9.2 mph - N/A   Overcast
7:35 PM 50.0 °F - 44.6 °F 82% 29.70 in 10.0 mi WNW 8.1 mph - N/A   Overcast
7:55 PM 50.0 °F - 42.8 °F 76% 29.70 in 10.0 mi NW 6.9 mph - N/A   Overcast
8:15 PM 48.2 °F - 42.8 °F 82% 29.71 in 10.0 mi WNW 4.6 mph - N/A   Overcast
8:35 PM 48.2 °F - 42.8 °F 82% 29.71 in 10.0 mi WNW 5.8 mph - N/A   Overcast
8:55 PM 48.2 °F - 42.8 °F 82% 29.71 in 10.0 mi WNW 5.8 mph - N/A   Overcast
9:15 PM 48.2 °F - 42.8 °F 82% 29.72 in 10.0 mi West 5.8 mph - N/A   Overcast
9:35 PM 48.2 °F - 42.8 °F 82% 29.72 in 10.0 mi WNW 6.9 mph - N/A   Overcast
9:55 PM 48.2 °F - 42.8 °F 82% 29.72 in 10.0 mi WNW 5.8 mph - N/A   Overcast
10:15 PM 48.2 °F - 42.8 °F 82% 29.72 in 10.0 mi West 4.6 mph - N/A   Overcast
10:35 PM 46.4 °F 44.3 °F 42.8 °F 87% 29.72 in 10.0 mi West 4.6 mph - N/A   Overcast
10:55 PM 46.4 °F 41.1 °F 42.8 °F 87% 29.73 in 10.0 mi West 11.5 mph - N/A   Overcast
11:15 PM 46.4 °F 40.7 °F 41.0 °F 81% 29.74 in 10.0 mi West 12.7 mph - N/A   Mostly Cloudy
11:35 PM 46.4 °F 41.5 °F 39.2 °F 76% 29.74 in 10.0 mi West 10.4 mph - N/A   Overcast
11:55 PM 46.4 °F 41.5 °F 41.0 °F 81% 29.74 in 10.0 mi West 10.4 mph - N/A   Overcast